owner,sensor,date,latitude,longitude,vertical_datum,wind_speed,wind_to_direction,wind_speed_of_gust,qcFlag 
ADCP,ioos:station:wmo:42369:1,2012-01-01T00:00:00Z,27.2070,-90.2830,60.4,3.1,156.0,99.0,'11111222,11111222,11144222' 
ADCP,ioos:station:wmo:42369:1,2012-01-01T00:40:00Z,27.2070,-90.2830,60.4,3.8,159.0,99.0,'11111222,11111222,11144222' 
ADCP,ioos:station:wmo:42369:1,2012-01-01T01:00:00Z,27.2070,-90.2830,60.4,4.3,163.0,99.0,'11111222,11111222,11144222' 
ADCP,ioos:station:wmo:42369:1,2012-01-01T01:20:00Z,27.2070,-90.2830,60.4,4.3,163.0,99.0,'11111222,11111222,11144222' 
ADCP,ioos:station:wmo:42369:1,2012-01-01T01:40:00Z,27.2070,-90.2830,60.4,4.2,159.0,99.0,'11111222,11111222,11144222' 
ADCP,ioos:station:wmo:42369:1,2012-01-01T02:00:00Z,27.2070,-90.2830,60.4,4.2,160.0,99.0,'11111222,11111222,11144222' 
ADCP,ioos:station:wmo:42369:1,2012-01-01T02:20:00Z,27.2070,-90.2830,60.4,4.2,160.0,99.0,'11111222,11111222,11144222' 
ADCP,ioos:station:wmo:42369:1,2012-01-01T02:40:00Z,27.2070,-90.2830,60.4,4.3,162.0,99.0,'11111222,11111222,11144222' 
ADCP,ioos:station:wmo:42369:1,2012-01-01T03:00:00Z,27.2070,-90.2830,60.4,4.2,164.0,99.0,'11111222,11111222,11144222' 
ADCP,ioos:station:wmo:42369:1,2012-01-01T03:20:00Z,27.2070,-90.2830,60.4,4.2,164.0,99.0,'11111222,11111222,11144222' 
ADCP,ioos:station:wmo:42369:1,2012-01-01T04:00:00Z,27.2070,-90.2830,60.4,4.1,168.0,99.0,'11111222,11111222,11144222' 
ADCP,ioos:station:wmo:42369:1,2012-01-01T04:20:00Z,27.2070,-90.2830,60.4,4.1,168.0,99.0,'11111222,11111222,11144222' 
ADCP,ioos:station:wmo:42369:1,2012-01-01T04:40:00Z,27.2070,-90.2830,60.4,4.0,170.0,99.0,'11111222,11111222,11144222' 
ADCP,ioos:station:wmo:42369:1,2012-01-01T05:00:00Z,27.2070,-90.2830,60.4,4.4,173.0,99.0,'11111222,11111222,11144222' 
ADCP,ioos:station:wmo:42369:1,2012-01-01T05:20:00Z,27.2070,-90.2830,60.4,4.4,173.0,99.0,'11111222,11111222,11144222' 
ADCP,ioos:station:wmo:42369:1,2012-01-01T05:40:00Z,27.2070,-90.2830,60.4,5.0,183.0,99.0,'11111222,11111222,11144222' 
ADCP,ioos:station:wmo:42369:1,2012-01-01T06:00:00Z,27.2070,-90.2830,60.4,5.6,183.0,99.0,'11111222,11111222,11144222' 
ADCP,ioos:station:wmo:42369:1,2012-01-01T06:20:00Z,27.2070,-90.2830,60.4,5.6,183.0,99.0,'11111222,11111222,11144222' 
ADCP,ioos:station:wmo:42369:1,2012-01-01T06:40:00Z,27.2070,-90.2830,60.4,5.2,183.0,99.0,'11111222,11111222,11144222' 
ADCP,ioos:station:wmo:42369:1,2012-01-01T07:00:00Z,27.2070,-90.2830,60.4,5.1,186.0,99.0,'11111222,11111222,11144222' 
ADCP,ioos:station:wmo:42369:1,2012-01-01T07:20:00Z,27.2070,-90.2830,60.4,5.1,186.0,99.0,'11111222,11111222,11144222' 
ADCP,ioos:station:wmo:42369:1,2012-01-01T08:00:00Z,27.2070,-90.2830,60.4,4.3,187.0,99.0,'11111222,11111222,11144222' 
ADCP,ioos:station:wmo:42369:1,2012-01-01T08:20:00Z,27.2070,-90.2830,60.4,4.3,187.0,99.0,'11111222,11111222,11144222' 
ADCP,ioos:station:wmo:42369:1,2012-01-01T09:00:00Z,27.2070,-90.2830,60.4,2.9,201.0,99.0,'11111222,11111222,11144222' 
ADCP,ioos:station:wmo:42369:1,2012-01-01T09:20:00Z,27.2070,-90.2830,60.4,2.9,201.0,99.0,'11111222,11111222,11144222' 
ADCP,ioos:station:wmo:42369:1,2012-01-01T10:00:00Z,27.2070,-90.2830,60.4,2.5,206.0,99.0,'11111222,11111222,11144222' 
ADCP,ioos:station:wmo:42369:1,2012-01-01T10:20:00Z,27.2070,-90.2830,60.4,2.5,206.0,99.0,'11111222,11111222,11144222' 
ADCP,ioos:station:wmo:42369:1,2012-01-01T10:40:00Z,27.2070,-90.2830,60.4,2.0,212.0,99.0,'11111222,11111222,11144222' 
ADCP,ioos:station:wmo:42369:1,2012-01-01T11:00:00Z,27.2070,-90.2830,60.4,2.3,211.0,99.0,'11111222,11111222,11144222' 
ADCP,ioos:station:wmo:42369:1,2012-01-01T11:20:00Z,27.2070,-90.2830,60.4,2.3,211.0,99.0,'11111222,11111222,11144222' 
ADCP,ioos:station:wmo:42369:1,2012-01-01T11:40:00Z,27.2070,-90.2830,60.4,3.2,204.0,99.0,'11111222,11111222,11144222' 
ADCP,ioos:station:wmo:42369:1,2012-01-01T12:00:00Z,27.2070,-90.2830,60.4,2.6,202.0,99.0,'11111222,11111222,11144222' 
ADCP,ioos:station:wmo:42369:1,2012-01-01T12:20:00Z,27.2070,-90.2830,60.4,2.6,202.0,99.0,'11111222,11111222,11144222' 
ADCP,ioos:station:wmo:42369:1,2012-01-01T12:40:00Z,27.2070,-90.2830,60.4,2.0,216.0,99.0,'11111222,11111222,11144222' 
ADCP,ioos:station:wmo:42369:1,2012-01-01T13:00:00Z,27.2070,-90.2830,60.4,1.7,215.0,99.0,'11111222,11111222,11144222' 
ADCP,ioos:station:wmo:42369:1,2012-01-01T13:20:00Z,27.2070,-90.2830,60.4,1.7,215.0,99.0,'11111222,11111222,11144222' 
ADCP,ioos:station:wmo:42369:1,2012-01-01T13:40:00Z,27.2070,-90.2830,60.4,0.3,208.0,99.0,'11111222,11111222,11144222' 
ADCP,ioos:station:wmo:42369:1,2012-01-01T14:00:00Z,27.2070,-90.2830,60.4,0.4,205.0,99.0,'11111222,11111222,11144222' 
ADCP,ioos:station:wmo:42369:1,2012-01-01T14:20:00Z,27.2070,-90.2830,60.4,0.4,205.0,99.0,'11111222,11111222,11144222' 
ADCP,ioos:station:wmo:42369:1,2012-01-01T15:00:00Z,27.2070,-90.2830,60.4,1.0,205.0,99.0,'11111222,11111222,11144222' 
ADCP,ioos:station:wmo:42369:1,2012-01-01T15:20:00Z,27.2070,-90.2830,60.4,1.0,205.0,99.0,'11111222,11111222,11144222' 
ADCP,ioos:station:wmo:42369:1,2012-01-01T15:40:00Z,27.2070,-90.2830,60.4,1.6,257.0,99.0,'11111222,11111222,11144222' 
ADCP,ioos:station:wmo:42369:1,2012-01-01T16:00:00Z,27.2070,-90.2830,60.4,1.6,263.0,99.0,'11111222,11111222,11144222' 
ADCP,ioos:station:wmo:42369:1,2012-01-01T16:20:00Z,27.2070,-90.2830,60.4,1.6,263.0,99.0,'11111222,11111222,11144222' 
ADCP,ioos:station:wmo:42369:1,2012-01-01T16:40:00Z,27.2070,-90.2830,60.4,2.0,270.0,99.0,'11111222,11111222,11144222' 
ADCP,ioos:station:wmo:42369:1,2012-01-01T17:00:00Z,27.2070,-90.2830,60.4,1.2,233.0,99.0,'11111222,11111222,11144222' 
ADCP,ioos:station:wmo:42369:1,2012-01-01T17:20:00Z,27.2070,-90.2830,60.4,1.2,233.0,99.0,'11111222,11111222,11144222' 
ADCP,ioos:station:wmo:42369:1,2012-01-01T17:40:00Z,27.2070,-90.2830,60.4,1.4,248.0,99.0,'11111222,11111222,11144222' 
ADCP,ioos:station:wmo:42369:1,2012-01-01T18:00:00Z,27.2070,-90.2830,60.4,0.4,208.0,99.0,'11111222,11111222,11144222' 
ADCP,ioos:station:wmo:42369:1,2012-01-01T18:20:00Z,27.2070,-90.2830,60.4,0.4,208.0,99.0,'11111222,11111222,11144222' 
ADCP,ioos:station:wmo:42369:1,2012-01-01T19:00:00Z,27.2070,-90.2830,60.4,2.4,253.0,99.0,'11111222,11111222,11144222' 
ADCP,ioos:station:wmo:42369:1,2012-01-01T19:20:00Z,27.2070,-90.2830,60.4,2.4,253.0,99.0,'11111222,11111222,11144222' 
ADCP,ioos:station:wmo:42369:1,2012-01-01T19:40:00Z,27.2070,-90.2830,60.4,2.6,274.0,99.0,'11111222,11111222,11144222' 
ADCP,ioos:station:wmo:42369:1,2012-01-01T20:00:00Z,27.2070,-90.2830,60.4,2.7,274.0,99.0,'11111222,11111222,11144222' 
ADCP,ioos:station:wmo:42369:1,2012-01-01T20:20:00Z,27.2070,-90.2830,60.4,2.7,274.0,99.0,'11111222,11111222,11144222' 
ADCP,ioos:station:wmo:42369:1,2012-01-01T20:40:00Z,27.2070,-90.2830,60.4,2.5,285.0,99.0,'11111222,11111222,11144222' 
ADCP,ioos:station:wmo:42369:1,2012-01-01T21:00:00Z,27.2070,-90.2830,60.4,2.3,281.0,99.0,'11111222,11111222,11144222' 
ADCP,ioos:station:wmo:42369:1,2012-01-01T21:20:00Z,27.2070,-90.2830,60.4,2.3,281.0,99.0,'11111222,11111222,11144222' 
ADCP,ioos:station:wmo:42369:1,2012-01-01T21:40:00Z,27.2070,-90.2830,60.4,2.6,293.0,99.0,'11111222,11111222,11144222' 
ADCP,ioos:station:wmo:42369:1,2012-01-01T22:00:00Z,27.2070,-90.2830,60.4,3.2,296.0,99.0,'11111222,11111222,11144222' 
ADCP,ioos:station:wmo:42369:1,2012-01-01T22:20:00Z,27.2070,-90.2830,60.4,3.2,296.0,99.0,'11111222,11111222,11144222' 
ADCP,ioos:station:wmo:42369:1,2012-01-01T22:40:00Z,27.2070,-90.2830,60.4,3.8,302.0,99.0,'11111222,11111222,11144222' 
ADCP,ioos:station:wmo:42369:1,2012-01-01T23:00:00Z,27.2070,-90.2830,60.4,4.7,299.0,99.0,'11111222,11111222,11144222' 
ADCP,ioos:station:wmo:42369:1,2012-01-01T23:20:00Z,27.2070,-90.2830,60.4,4.7,299.0,99.0,'11111222,11111222,11144222' 
ADCP,ioos:station:wmo:42369:1,2012-01-01T23:40:00Z,27.2070,-90.2830,60.4,3.0,317.0,99.0,'11111222,11111222,11144222' 
ADCP,ioos:station:wmo:42369:1,2012-01-02T00:00:00Z,27.2070,-90.2830,60.4,6.0,342.0,99.0,'11111222,11111222,11144222' 
ADCP,ioos:station:wmo:42369:1,2012-01-02T00:20:00Z,27.2070,-90.2830,60.4,6.0,342.0,99.0,'11111222,11111222,11144222' 
ADCP,ioos:station:wmo:42369:1,2012-01-02T00:40:00Z,27.2070,-90.2830,60.4,7.9,341.0,99.0,'11111222,11111222,11144222' 
ADCP,ioos:station:wmo:42369:1,2012-01-02T01:00:00Z,27.2070,-90.2830,60.4,8.6,346.0,99.0,'11111222,11111222,11144222' 
ADCP,ioos:station:wmo:42369:1,2012-01-02T01:20:00Z,27.2070,-90.2830,60.4,8.6,346.0,99.0,'11111222,11111222,11144222' 
ADCP,ioos:station:wmo:42369:1,2012-01-02T02:00:00Z,27.2070,-90.2830,60.4,11.9,350.0,99.0,'11111222,11111222,11144222' 
ADCP,ioos:station:wmo:42369:1,2012-01-02T02:20:00Z,27.2070,-90.2830,60.4,11.9,350.0,99.0,'11111222,11111222,11144222' 
ADCP,ioos:station:wmo:42369:1,2012-01-02T02:40:00Z,27.2070,-90.2830,60.4,12.9,259.0,99.0,'11111222,11111222,11144222' 
ADCP,ioos:station:wmo:42369:1,2012-01-02T03:00:00Z,27.2070,-90.2830,60.4,12.9,220.0,99.0,'11111222,11111222,11144222' 
ADCP,ioos:station:wmo:42369:1,2012-01-02T03:20:00Z,27.2070,-90.2830,60.4,12.9,220.0,99.0,'11111222,11111222,11144222' 
ADCP,ioos:station:wmo:42369:1,2012-01-02T03:40:00Z,27.2070,-90.2830,60.4,12.6,15.0,99.0,'11111222,11111222,11144222' 
ADCP,ioos:station:wmo:42369:1,2012-01-02T04:00:00Z,27.2070,-90.2830,60.4,12.7,17.0,99.0,'11111222,11111222,11144222' 
ADCP,ioos:station:wmo:42369:1,2012-01-02T04:20:00Z,27.2070,-90.2830,60.4,12.7,17.0,99.0,'11111222,11111222,11144222' 
ADCP,ioos:station:wmo:42369:1,2012-01-02T04:40:00Z,27.2070,-90.2830,60.4,14.5,13.0,99.0,'11111222,11111222,11144222' 
ADCP,ioos:station:wmo:42369:1,2012-01-02T06:40:00Z,27.2070,-90.2830,60.4,14.6,29.0,99.0,'11111222,11111222,11144222' 
ADCP,ioos:station:wmo:42369:1,2012-01-02T07:00:00Z,27.2070,-90.2830,60.4,14.9,23.0,99.0,'11111222,11111222,11144222' 
ADCP,ioos:station:wmo:42369:1,2012-01-02T07:20:00Z,27.2070,-90.2830,60.4,14.9,23.0,99.0,'11111222,11111222,11144222' 
ADCP,ioos:station:wmo:42369:1,2012-01-02T08:00:00Z,27.2070,-90.2830,60.4,14.3,26.0,99.0,'11111222,11111222,11144222' 
ADCP,ioos:station:wmo:42369:1,2012-01-02T08:20:00Z,27.2070,-90.2830,60.4,14.3,26.0,99.0,'11111222,11111222,11144222' 
ADCP,ioos:station:wmo:42369:1,2012-01-02T08:40:00Z,27.2070,-90.2830,60.4,15.2,25.0,99.0,'11111222,11111222,11144222' 
ADCP,ioos:station:wmo:42369:1,2012-01-02T09:20:00Z,27.2070,-90.2830,60.4,15.4,26.0,99.0,'11111222,11111222,11144222' 
ADCP,ioos:station:wmo:42369:1,2012-01-02T10:00:00Z,27.2070,-90.2830,60.4,14.7,29.0,99.0,'11111222,11111222,11144222' 
ADCP,ioos:station:wmo:42369:1,2012-01-02T11:00:00Z,27.2070,-90.2830,60.4,15.4,30.0,99.0,'11111222,11111222,11144222' 
ADCP,ioos:station:wmo:42369:1,2012-01-02T11:20:00Z,27.2070,-90.2830,60.4,15.4,30.0,99.0,'11111222,11111222,11144222' 
ADCP,ioos:station:wmo:42369:1,2012-01-02T11:40:00Z,27.2070,-90.2830,60.4,14.6,34.0,99.0,'11111222,11111222,11144222' 
ADCP,ioos:station:wmo:42369:1,2012-01-02T12:00:00Z,27.2070,-90.2830,60.4,15.0,28.0,99.0,'11111222,11111222,11144222' 
ADCP,ioos:station:wmo:42369:1,2012-01-02T12:20:00Z,27.2070,-90.2830,60.4,15.0,28.0,99.0,'11111222,11111222,11144222' 
ADCP,ioos:station:wmo:42369:1,2012-01-02T12:40:00Z,27.2070,-90.2830,60.4,15.1,27.0,99.0,'11111222,11111222,11144222' 
ADCP,ioos:station:wmo:42369:1,2012-01-02T13:00:00Z,27.2070,-90.2830,60.4,14.2,30.0,99.0,'11111222,11111222,11144222' 
ADCP,ioos:station:wmo:42369:1,2012-01-02T13:20:00Z,27.2070,-90.2830,60.4,14.2,30.0,99.0,'11111222,11111222,11144222' 
ADCP,ioos:station:wmo:42369:1,2012-01-02T13:40:00Z,27.2070,-90.2830,60.4,14.5,25.0,99.0,'11111222,11111222,11144222' 
ADCP,ioos:station:wmo:42369:1,2012-01-02T14:00:00Z,27.2070,-90.2830,60.4,14.1,27.0,99.0,'11111222,11111222,11144222' 
ADCP,ioos:station:wmo:42369:1,2012-01-02T14:20:00Z,27.2070,-90.2830,60.4,14.1,27.0,99.0,'11111222,11111222,11144222' 
ADCP,ioos:station:wmo:42369:1,2012-01-02T14:40:00Z,27.2070,-90.2830,60.4,13.6,26.0,99.0,'11111222,11111222,11144222' 
ADCP,ioos:station:wmo:42369:1,2012-01-02T15:00:00Z,27.2070,-90.2830,60.4,13.8,24.0,99.0,'11111222,11111222,11144222' 
ADCP,ioos:station:wmo:42369:1,2012-01-02T15:20:00Z,27.2070,-90.2830,60.4,13.8,24.0,99.0,'11111222,11111222,11144222' 
ADCP,ioos:station:wmo:42369:1,2012-01-02T15:40:00Z,27.2070,-90.2830,60.4,13.3,25.0,99.0,'11111222,11111222,11144222' 
ADCP,ioos:station:wmo:42369:1,2012-01-02T16:00:00Z,27.2070,-90.2830,60.4,13.2,23.0,99.0,'11111222,11111222,11144222' 
ADCP,ioos:station:wmo:42369:1,2012-01-02T16:20:00Z,27.2070,-90.2830,60.4,13.2,23.0,99.0,'11111222,11111222,11144222' 
ADCP,ioos:station:wmo:42369:1,2012-01-02T16:40:00Z,27.2070,-90.2830,60.4,13.2,20.0,99.0,'11111222,11111222,11144222' 
ADCP,ioos:station:wmo:42369:1,2012-01-02T17:00:00Z,27.2070,-90.2830,60.4,13.0,20.0,99.0,'11111222,11111222,11144222' 
ADCP,ioos:station:wmo:42369:1,2012-01-02T17:20:00Z,27.2070,-90.2830,60.4,13.0,20.0,99.0,'11111222,11111222,11144222' 
ADCP,ioos:station:wmo:42369:1,2012-01-02T17:40:00Z,27.2070,-90.2830,60.4,12.4,18.0,99.0,'11111222,11111222,11144222' 
ADCP,ioos:station:wmo:42369:1,2012-01-02T18:00:00Z,27.2070,-90.2830,60.4,13.0,16.0,99.0,'11111222,11111222,11144222' 
ADCP,ioos:station:wmo:42369:1,2012-01-02T18:20:00Z,27.2070,-90.2830,60.4,13.0,16.0,99.0,'11111222,11111222,11144222' 
ADCP,ioos:station:wmo:42369:1,2012-01-02T19:00:00Z,27.2070,-90.2830,60.4,12.2,16.0,99.0,'11111222,11111222,11144222' 
ADCP,ioos:station:wmo:42369:1,2012-01-02T19:20:00Z,27.2070,-90.2830,60.4,12.2,16.0,99.0,'11111222,11111222,11144222' 
ADCP,ioos:station:wmo:42369:1,2012-01-02T19:40:00Z,27.2070,-90.2830,60.4,11.1,16.0,99.0,'11111222,11111222,11144222' 
ADCP,ioos:station:wmo:42369:1,2012-01-02T20:00:00Z,27.2070,-90.2830,60.4,11.8,17.0,99.0,'11111222,11111222,11144222' 
ADCP,ioos:station:wmo:42369:1,2012-01-02T20:20:00Z,27.2070,-90.2830,60.4,11.8,17.0,99.0,'11111222,11111222,11144222' 
ADCP,ioos:station:wmo:42369:1,2012-01-02T20:40:00Z,27.2070,-90.2830,60.4,11.4,20.0,99.0,'11111222,11111222,11144222' 
ADCP,ioos:station:wmo:42369:1,2012-01-02T21:00:00Z,27.2070,-90.2830,60.4,11.0,37.0,99.0,'11111222,11111222,11144222' 
ADCP,ioos:station:wmo:42369:1,2012-01-02T21:20:00Z,27.2070,-90.2830,60.4,11.0,37.0,99.0,'11111222,11111222,11144222' 
ADCP,ioos:station:wmo:42369:1,2012-01-02T21:40:00Z,27.2070,-90.2830,60.4,10.6,99.0,99.0,'11111222,11111222,11144222' 
ADCP,ioos:station:wmo:42369:1,2012-01-02T22:00:00Z,27.2070,-90.2830,60.4,10.9,63.0,99.0,'11111222,11111222,11144222' 
ADCP,ioos:station:wmo:42369:1,2012-01-02T22:20:00Z,27.2070,-90.2830,60.4,10.9,63.0,99.0,'11111222,11111222,11144222' 
ADCP,ioos:station:wmo:42369:1,2012-01-02T23:00:00Z,27.2070,-90.2830,60.4,10.2,173.0,99.0,'11111222,11111222,11144222' 
ADCP,ioos:station:wmo:42369:1,2012-01-02T23:20:00Z,27.2070,-90.2830,60.4,10.2,173.0,99.0,'11111222,11111222,11144222' 
ADCP,ioos:station:wmo:42369:1,2012-01-02T23:40:00Z,27.2070,-90.2830,60.4,10.1,171.0,99.0,'11111222,11111222,11144222' 
ADCP,ioos:station:wmo:42369:1,2012-01-03T00:00:00Z,27.2070,-90.2830,60.4,10.2,243.0,99.0,'11111222,11111222,11144222' 
ADCP,ioos:station:wmo:42369:1,2012-01-03T00:20:00Z,27.2070,-90.2830,60.4,10.2,243.0,99.0,'11111222,11111222,11144222' 
ADCP,ioos:station:wmo:42369:1,2012-01-03T01:00:00Z,27.2070,-90.2830,60.4,10.4,304.0,99.0,'11111222,11111222,11144222' 
ADCP,ioos:station:wmo:42369:1,2012-01-03T01:20:00Z,27.2070,-90.2830,60.4,10.4,304.0,99.0,'11111222,11111222,11144222' 
ADCP,ioos:station:wmo:42369:1,2012-01-03T02:00:00Z,27.2070,-90.2830,60.4,11.3,314.0,99.0,'11111222,11111222,11144222' 
ADCP,ioos:station:wmo:42369:1,2012-01-03T02:20:00Z,27.2070,-90.2830,60.4,11.3,314.0,99.0,'11111222,11111222,11144222' 
ADCP,ioos:station:wmo:42369:1,2012-01-03T02:40:00Z,27.2070,-90.2830,60.4,11.8,273.0,99.0,'11111222,11111222,11144222' 
ADCP,ioos:station:wmo:42369:1,2012-01-03T03:20:00Z,27.2070,-90.2830,60.4,11.8,258.0,99.0,'11111222,11111222,11144222' 
ADCP,ioos:station:wmo:42369:1,2012-01-03T03:40:00Z,27.2070,-90.2830,60.4,12.3,208.0,99.0,'11111222,11111222,11144222' 
ADCP,ioos:station:wmo:42369:1,2012-01-03T04:00:00Z,27.2070,-90.2830,60.4,13.1,225.0,99.0,'11111222,11111222,11144222' 
ADCP,ioos:station:wmo:42369:1,2012-01-03T04:20:00Z,27.2070,-90.2830,60.4,13.1,225.0,99.0,'11111222,11111222,11144222' 
ADCP,ioos:station:wmo:42369:1,2012-01-03T05:00:00Z,27.2070,-90.2830,60.4,12.9,71.0,99.0,'11111222,11111222,11144222' 
ADCP,ioos:station:wmo:42369:1,2012-01-03T05:20:00Z,27.2070,-90.2830,60.4,12.9,71.0,99.0,'11111222,11111222,11144222' 
ADCP,ioos:station:wmo:42369:1,2012-01-03T05:40:00Z,27.2070,-90.2830,60.4,13.1,71.0,99.0,'11111222,11111222,11144222' 
ADCP,ioos:station:wmo:42369:1,2012-01-03T06:00:00Z,27.2070,-90.2830,60.4,13.2,86.0,99.0,'11111222,11111222,11144222' 
ADCP,ioos:station:wmo:42369:1,2012-01-03T06:20:00Z,27.2070,-90.2830,60.4,13.2,86.0,99.0,'11111222,11111222,11144222' 
ADCP,ioos:station:wmo:42369:1,2012-01-03T06:40:00Z,27.2070,-90.2830,60.4,13.5,45.0,99.0,'11111222,11111222,11144222' 
ADCP,ioos:station:wmo:42369:1,2012-01-03T07:00:00Z,27.2070,-90.2830,60.4,13.3,44.0,99.0,'11111222,11111222,11144222' 
ADCP,ioos:station:wmo:42369:1,2012-01-03T07:20:00Z,27.2070,-90.2830,60.4,13.3,44.0,99.0,'11111222,11111222,11144222' 
ADCP,ioos:station:wmo:42369:1,2012-01-03T08:00:00Z,27.2070,-90.2830,60.4,12.9,33.0,99.0,'11111222,11111222,11144222' 
ADCP,ioos:station:wmo:42369:1,2012-01-03T08:20:00Z,27.2070,-90.2830,60.4,12.9,33.0,99.0,'11111222,11111222,11144222' 
ADCP,ioos:station:wmo:42369:1,2012-01-03T09:00:00Z,27.2070,-90.2830,60.4,13.0,13.0,99.0,'11111222,11111222,11144222' 
ADCP,ioos:station:wmo:42369:1,2012-01-03T09:20:00Z,27.2070,-90.2830,60.4,13.0,13.0,99.0,'11111222,11111222,11144222' 
ADCP,ioos:station:wmo:42369:1,2012-01-03T09:40:00Z,27.2070,-90.2830,60.4,11.9,21.0,99.0,'11111222,11111222,11144222' 
ADCP,ioos:station:wmo:42369:1,2012-01-03T10:00:00Z,27.2070,-90.2830,60.4,11.7,18.0,99.0,'11111222,11111222,11144222' 
ADCP,ioos:station:wmo:42369:1,2012-01-03T10:20:00Z,27.2070,-90.2830,60.4,11.7,18.0,99.0,'11111222,11111222,11144222' 
ADCP,ioos:station:wmo:42369:1,2012-01-03T12:00:00Z,27.2070,-90.2830,60.4,11.3,21.0,99.0,'11111222,11111222,11144222' 
ADCP,ioos:station:wmo:42369:1,2012-01-03T12:20:00Z,27.2070,-90.2830,60.4,11.3,21.0,99.0,'11111222,11111222,11144222' 
ADCP,ioos:station:wmo:42369:1,2012-01-03T13:20:00Z,27.2070,-90.2830,60.4,10.8,22.0,99.0,'11111222,11111222,11144222' 
ADCP,ioos:station:wmo:42369:1,2012-01-03T14:00:00Z,27.2070,-90.2830,60.4,9.4,30.0,99.0,'11111222,11111222,11144222' 
ADCP,ioos:station:wmo:42369:1,2012-01-03T14:20:00Z,27.2070,-90.2830,60.4,9.4,30.0,99.0,'11111222,11111222,11144222' 
ADCP,ioos:station:wmo:42369:1,2012-01-03T14:40:00Z,27.2070,-90.2830,60.4,8.9,31.0,99.0,'11111222,11111222,11144222' 
ADCP,ioos:station:wmo:42369:1,2012-01-03T15:00:00Z,27.2070,-90.2830,60.4,9.7,25.0,99.0,'11111222,11111222,11144222' 
ADCP,ioos:station:wmo:42369:1,2012-01-03T15:20:00Z,27.2070,-90.2830,60.4,9.7,25.0,99.0,'11111222,11111222,11144222' 
ADCP,ioos:station:wmo:42369:1,2012-01-03T15:40:00Z,27.2070,-90.2830,60.4,8.9,29.0,99.0,'11111222,11111222,11144222' 
ADCP,ioos:station:wmo:42369:1,2012-01-03T16:00:00Z,27.2070,-90.2830,60.4,9.3,30.0,99.0,'11111222,11111222,11144222' 
ADCP,ioos:station:wmo:42369:1,2012-01-03T16:20:00Z,27.2070,-90.2830,60.4,9.3,30.0,99.0,'11111222,11111222,11144222' 
ADCP,ioos:station:wmo:42369:1,2012-01-03T17:20:00Z,27.2070,-90.2830,60.4,7.9,33.0,99.0,'11111222,11111222,11144222' 
ADCP,ioos:station:wmo:42369:1,2012-01-03T17:40:00Z,27.2070,-90.2830,60.4,8.4,27.0,99.0,'11111222,11111222,11144222' 
ADCP,ioos:station:wmo:42369:1,2012-01-03T18:00:00Z,27.2070,-90.2830,60.4,8.0,26.0,99.0,'11111222,11111222,11144222' 
ADCP,ioos:station:wmo:42369:1,2012-01-03T18:20:00Z,27.2070,-90.2830,60.4,8.0,26.0,99.0,'11111222,11111222,11144222' 
ADCP,ioos:station:wmo:42369:1,2012-01-03T18:40:00Z,27.2070,-90.2830,60.4,7.3,27.0,99.0,'11111222,11111222,11144222' 
ADCP,ioos:station:wmo:42369:1,2012-01-03T19:00:00Z,27.2070,-90.2830,60.4,7.3,26.0,99.0,'11111222,11111222,11144222' 
ADCP,ioos:station:wmo:42369:1,2012-01-03T19:20:00Z,27.2070,-90.2830,60.4,7.3,26.0,99.0,'11111222,11111222,11144222' 
ADCP,ioos:station:wmo:42369:1,2012-01-03T20:00:00Z,27.2070,-90.2830,60.4,7.1,30.0,99.0,'11111222,11111222,11144222' 
ADCP,ioos:station:wmo:42369:1,2012-01-03T20:20:00Z,27.2070,-90.2830,60.4,7.1,30.0,99.0,'11111222,11111222,11144222' 
ADCP,ioos:station:wmo:42369:1,2012-01-03T21:00:00Z,27.2070,-90.2830,60.4,7.2,34.0,99.0,'11111222,11111222,11144222' 
ADCP,ioos:station:wmo:42369:1,2012-01-03T21:20:00Z,27.2070,-90.2830,60.4,7.2,34.0,99.0,'11111222,11111222,11144222' 
ADCP,ioos:station:wmo:42369:1,2012-01-03T21:40:00Z,27.2070,-90.2830,60.4,7.2,34.0,99.0,'11111222,11111222,11144222' 
ADCP,ioos:station:wmo:42369:1,2012-01-03T22:00:00Z,27.2070,-90.2830,60.4,7.2,34.0,99.0,'11111222,11111222,11144222' 
ADCP,ioos:station:wmo:42369:1,2012-01-03T22:20:00Z,27.2070,-90.2830,60.4,7.2,34.0,99.0,'11111222,11111222,11144222' 
ADCP,ioos:station:wmo:42369:1,2012-01-03T23:20:00Z,27.2070,-90.2830,60.4,5.5,49.0,99.0,'11111222,11111222,11144222' 
ADCP,ioos:station:wmo:42369:1,2012-01-04T00:00:00Z,27.2070,-90.2830,60.4,4.3,61.0,99.0,'11111222,11111222,11144222' 
ADCP,ioos:station:wmo:42369:1,2012-01-04T00:20:00Z,27.2070,-90.2830,60.4,4.3,61.0,99.0,'11111222,11111222,11144222' 
ADCP,ioos:station:wmo:42369:1,2012-01-04T00:40:00Z,27.2070,-90.2830,60.4,4.5,50.0,99.0,'11111222,11111222,11144222' 
ADCP,ioos:station:wmo:42369:1,2012-01-04T01:00:00Z,27.2070,-90.2830,60.4,4.2,47.0,99.0,'11111222,11111222,11144222' 
ADCP,ioos:station:wmo:42369:1,2012-01-04T01:20:00Z,27.2070,-90.2830,60.4,4.2,47.0,99.0,'11111222,11111222,11144222' 
ADCP,ioos:station:wmo:42369:1,2012-01-04T02:00:00Z,27.2070,-90.2830,60.4,3.2,57.0,99.0,'11111222,11111222,11144222' 
ADCP,ioos:station:wmo:42369:1,2012-01-04T02:20:00Z,27.2070,-90.2830,60.4,3.2,57.0,99.0,'11111222,11111222,11144222' 
ADCP,ioos:station:wmo:42369:1,2012-01-04T03:00:00Z,27.2070,-90.2830,60.4,3.2,56.0,99.0,'11111222,11111222,11144222' 
ADCP,ioos:station:wmo:42369:1,2012-01-04T03:20:00Z,27.2070,-90.2830,60.4,3.2,56.0,99.0,'11111222,11111222,11144222' 
ADCP,ioos:station:wmo:42369:1,2012-01-04T03:40:00Z,27.2070,-90.2830,60.4,2.4,91.0,99.0,'11111222,11111222,11144222' 
ADCP,ioos:station:wmo:42369:1,2012-01-04T04:00:00Z,27.2070,-90.2830,60.4,2.5,78.0,99.0,'11111222,11111222,11144222' 
ADCP,ioos:station:wmo:42369:1,2012-01-04T04:20:00Z,27.2070,-90.2830,60.4,2.5,78.0,99.0,'11111222,11111222,11144222' 
ADCP,ioos:station:wmo:42369:1,2012-01-04T04:40:00Z,27.2070,-90.2830,60.4,2.4,72.0,99.0,'11111222,11111222,11144222' 
ADCP,ioos:station:wmo:42369:1,2012-01-04T05:00:00Z,27.2070,-90.2830,60.4,2.3,74.0,99.0,'11111222,11111222,11144222' 
ADCP,ioos:station:wmo:42369:1,2012-01-04T05:20:00Z,27.2070,-90.2830,60.4,2.3,74.0,99.0,'11111222,11111222,11144222' 
ADCP,ioos:station:wmo:42369:1,2012-01-04T05:40:00Z,27.2070,-90.2830,60.4,2.3,82.0,99.0,'11111222,11111222,11144222' 
ADCP,ioos:station:wmo:42369:1,2012-01-04T06:00:00Z,27.2070,-90.2830,60.4,2.0,85.0,99.0,'11111222,11111222,11144222' 
ADCP,ioos:station:wmo:42369:1,2012-01-04T06:20:00Z,27.2070,-90.2830,60.4,2.0,85.0,99.0,'11111222,11111222,11144222' 
ADCP,ioos:station:wmo:42369:1,2012-01-04T07:00:00Z,27.2070,-90.2830,60.4,2.1,98.0,99.0,'11111222,11111222,11144222' 
ADCP,ioos:station:wmo:42369:1,2012-01-04T07:20:00Z,27.2070,-90.2830,60.4,2.1,98.0,99.0,'11111222,11111222,11144222' 
ADCP,ioos:station:wmo:42369:1,2012-01-04T07:40:00Z,27.2070,-90.2830,60.4,2.4,134.0,99.0,'11111222,11111222,11144222' 
ADCP,ioos:station:wmo:42369:1,2012-01-04T08:00:00Z,27.2070,-90.2830,60.4,2.0,151.0,99.0,'11111222,11111222,11144222' 
ADCP,ioos:station:wmo:42369:1,2012-01-04T08:20:00Z,27.2070,-90.2830,60.4,2.0,151.0,99.0,'11111222,11111222,11144222' 
ADCP,ioos:station:wmo:42369:1,2012-01-04T08:40:00Z,27.2070,-90.2830,60.4,2.3,143.0,99.0,'11111222,11111222,11144222' 
ADCP,ioos:station:wmo:42369:1,2012-01-04T09:00:00Z,27.2070,-90.2830,60.4,2.1,125.0,99.0,'11111222,11111222,11144222' 
ADCP,ioos:station:wmo:42369:1,2012-01-04T09:20:00Z,27.2070,-90.2830,60.4,2.1,125.0,99.0,'11111222,11111222,11144222' 